[Date Prev][Date Next][Thread Prev][Thread Next] - [Date Index][Thread Index][Author Index]
2 Line ISS Keps 4-23
- Subject: [sarex] 2 Line ISS Keps 4-23
- From: "Dave Larsen PhD" <doc@xxxxxxxxxxx>
- Date: Wed, 23 Apr 2003 06:57:45 -0700
ISS
1 25544U 98067A 03113.49001133 .00024211 00000-0 31705-3 0 9190
2 25544 51.6324 295.0207 0006641 51.1059 346.5507 15.58434644252470
----
Via the sarex mailing list at AMSAT.ORG courtesy of AMSAT-NA.
To unsubscribe, send "unsubscribe sarex" to Majordomo@amsat.org
AMSAT Home